Location: Eschertshofen
(49.3064°N, 11.5756°E)
Time: 22:00:37
(UTC+00:00)

Nadezhda 4 Rocket - Pass Details

Date: 18 September 2020
Orbit: 949 x 993 km, 82.9° (Epoch: 20 October)

Event Time Altitude Azimuth Distance (km) Brightness Sun altitude
Rises 18:50:02 0° 351° (N) 3,641 7.4 -15.2°
Reaches altitude 10° 18:52:34 10° 353° (N) 2,688 6.7 -15.6°
Maximum altitude 18:58:42 75° 79° (E) 987 3.9 -16.5°
Enters shadow 19:04:41 11° 165° (SSE) 2,627 5.9 -17.4°
